Weather History for Pecos, TX

Change the Weather History Date:

Friday, April 26, 2013

  Actual Average Record
Temperature  
Mean Temperature 66 °F -  
Max Temperature 91 °F 87 °F 102 °F (1951)
Min Temperature 42 °F 51 °F 30 °F (1914)
Cooling Degree Days 1    
Growing Degree Days 16 (Base 50)    
Moisture  
Dew Point 37 °F    
Average Humidity 54    
Maximum Humidity 82    
Minimum Humidity 9    
Precipitation  
Precipitation 0.00 in - - ()
Sea Level Pressure  
Sea Level Pressure 30.00 in    
Wind  
Wind Speed 13 mph (North)    
Max Wind Speed 29 mph    
Max Gust Speed 33 mph    
Visibility 10 miles    
Events      
Averages and records for this station are not official NWS values.
T = Trace of Precipitation, MM = Missing Value Source: NWS Daily Summary

Daily Weather History Graph

Daily Weather History Graph

Search for Another Location

Airport:

Trip Planner

Search our weather history database for the weather conditions in past years. The results will help you decide how hot, cold, wet, or windy it might be!

Date:

Astronomy

Apr. 26, 2013 Rise Set
Actual Time 7:13 AM CDT 8:30 PM CDT
Civil Twilight 6:48 AM CDT 8:55 PM CDT
Nautical Twilight 6:17 AM CDT 9:26 PM CDT
Astronomical Twilight 5:46 AM CDT 9:57 PM CDT
Moon 9:50 PM CDT (4/26) 7:46 AM CDT (4/26)
Length of Visible Light 14h 07m
Length of Day
13h 16m
Full, 99% of the Moon is Illuminated
Apr 26
Full
May 2
Last Quarter
May 9
New
May 17
First Quarter
May 24
Full

Hourly Weather History & Observations

Time (CDT) Temp. Windchill Dew Point Humidity Pressure Visibility Wind Dir Wind Speed Gust Speed Precip Events Conditions
12:15 AM 59.9 °F - 43.9 °F 55% 29.96 in 10.0 mi ESE 24.2 mph 33.4 mph N/A   Clear
12:35 AM 59.0 °F - 43.7 °F 57% 29.95 in 10.0 mi ESE 28.8 mph 33.4 mph N/A   Clear
12:55 AM 58.5 °F - 43.7 °F 58% 29.96 in 10.0 mi ESE 24.2 mph 28.8 mph N/A   Clear
1:15 AM 58.3 °F - 43.7 °F 58% 29.96 in 10.0 mi ESE 21.9 mph 29.9 mph N/A   Clear
1:35 AM 57.6 °F - 43.3 °F 59% 29.96 in 10.0 mi ESE 18.4 mph - N/A   Clear
1:55 AM 57.2 °F - 43.3 °F 60% 29.97 in 10.0 mi ESE 15.0 mph 20.7 mph N/A   Clear
2:15 AM 56.7 °F - 43.3 °F 61% 30.00 in 10.0 mi WNW 5.8 mph - N/A   Clear
2:35 AM 56.3 °F - 43.2 °F 61% 29.99 in 10.0 mi Calm Calm - N/A   Clear
2:55 AM 54.1 °F - 42.8 °F 66% 29.98 in 10.0 mi ENE 3.5 mph - N/A   Clear
3:15 AM 52.9 °F - 42.1 °F 67% 29.98 in 10.0 mi ENE 5.8 mph - N/A   Clear
3:35 AM 52.2 °F - 42.3 °F 69% 29.98 in 10.0 mi NE 5.8 mph - N/A   Clear
3:55 AM 51.6 °F - 41.9 °F 69% 29.98 in 10.0 mi NE 5.8 mph - N/A   Clear
4:15 AM 50.9 °F - 41.9 °F 71% 29.98 in 10.0 mi ENE 6.9 mph - N/A   Clear
4:35 AM 50.9 °F - 41.7 °F 71% 29.98 in 10.0 mi NE 6.9 mph - N/A   Clear
4:55 AM 50.2 °F - 41.5 °F 72% 29.98 in 10.0 mi ENE 6.9 mph - N/A   Clear
5:15 AM 49.6 °F - 41.5 °F 74% 29.99 in 10.0 mi NE 4.6 mph - N/A   Clear
5:55 AM 48.6 °F - 41.2 °F 76% 30.00 in 10.0 mi Calm Calm - N/A   Clear
6:15 AM 44.4 °F 42.9 °F 37.0 °F 75% 30.00 in 10.0 mi WNW 3.5 mph - N/A   Clear
6:35 AM 44.6 °F 41.4 °F 38.5 °F 79% 30.02 in 10.0 mi NNW 5.8 mph - N/A   Clear
6:55 AM 43.3 °F 39.9 °F 37.8 °F 81% 30.02 in 10.0 mi NW 5.8 mph - N/A   Clear
7:15 AM 43.0 °F - 37.9 °F 82% 30.03 in 10.0 mi Calm Calm - N/A   Clear
7:35 AM 42.1 °F 39.2 °F 36.5 °F 81% 30.03 in 10.0 mi West 4.6 mph - N/A   Clear
8:55 AM 53.4 °F - 43.0 °F 68% 30.06 in 10.0 mi SW 4.6 mph - N/A   Clear
10:35 AM 64.6 °F - 43.9 °F 47% 30.09 in 10.0 mi NNW 3.5 mph - N/A   Clear
11:15 AM 71.4 °F - 41.4 °F 34% 30.09 in 10.0 mi WNW 4.6 mph - N/A   Clear
11:55 AM 77.0 °F - 38.3 °F 25% 30.09 in 10.0 mi NW 3.5 mph - N/A   Clear
12:35 PM 83.8 °F - 28.8 °F 14% 30.07 in 10.0 mi West 12.7 mph 21.9 mph N/A   Clear
3:15 PM 89.6 °F - 26.1 °F 10% 30.01 in 10.0 mi WSW 12.7 mph 26.5 mph N/A   Clear
3:55 PM 90.1 °F - 23.4 °F 9% 30.00 in 10.0 mi West 17.3 mph - N/A   Clear
8:35 PM 76.8 °F - 14.9 °F 10% 29.98 in 10.0 mi West 8.1 mph - N/A   Clear
8:55 PM 72.1 °F - 14.5 °F 11% 29.99 in 10.0 mi West 8.1 mph - N/A   Clear
11:55 PM 62.2 °F - 9.1 °F 12% 30.05 in 10.0 mi West 9.2 mph - N/A   Clear